Time,TemperatureF,DewpointF,PressureIn,WindDirection,WindDirectionDegrees,WindSpeedMPH,WindSpeedGustMPH,Humidity,HourlyPrecipIn,Conditions,Clouds,dailyrainin,SoftwareType,DateUTC
2013-03-04 00:01:00,38.7,13.4,23.33,ENE,74,0.0,0.0,35,0.00,,,0.00,WeatherTracker,2013-03-04 07:01:00,
2013-03-04 00:11:00,38.1,13.6,23.33,East,87,0.0,0.0,36,0.00,,,0.00,WeatherTracker,2013-03-04 07:11:00,
2013-03-04 00:16:00,37.9,13.4,23.33,East,93,0.0,0.0,36,0.00,,,0.00,WeatherTracker,2013-03-04 07:16:00,
2013-03-04 00:26:00,37.8,13.2,23.33,East,101,0.0,0.0,36,0.00,,,0.00,WeatherTracker,2013-03-04 07:26:00,
2013-03-04 00:31:00,37.9,12.8,23.30,ENE,71,0.0,0.0,35,0.00,,,0.00,WeatherTracker,2013-03-04 07:31:00,
2013-03-04 00:41:00,37.6,13.1,23.30,NE,46,0.0,0.0,36,0.00,,,0.00,WeatherTracker,2013-03-04 07:41:00,
2013-03-04 00:46:00,37.6,13.7,23.33,NE,40,0.0,0.0,37,0.00,,,0.00,WeatherTracker,2013-03-04 07:46:00,
2013-03-04 00:51:00,37.4,12.9,23.33,NE,42,0.0,0.0,36,0.00,,,0.00,WeatherTracker,2013-03-04 07:51:00,
2013-03-04 00:56:00,37.2,14.6,23.33,NE,55,0.0,0.0,39,0.00,,,0.00,WeatherTracker,2013-03-04 07:56:00,
2013-03-04 01:06:00,37.2,14.0,23.30,ESE,115,0.0,0.0,38,0.00,,,0.00,WeatherTracker,2013-03-04 08:06:00,
2013-03-04 01:16:00,37.6,12.4,23.30,East,84,2.0,3.0,35,0.00,,,0.00,WeatherTracker,2013-03-04 08:16:00,
2013-03-04 01:21:00,37.8,12.6,23.30,ESE,103,0.0,0.0,35,0.00,,,0.00,WeatherTracker,2013-03-04 08:21:00,
2013-03-04 01:26:00,37.6,13.1,23.30,ENE,69,0.0,0.0,36,0.00,,,0.00,WeatherTracker,2013-03-04 08:26:00,
2013-03-04 01:31:00,37.4,12.3,23.30,East,98,0.0,0.0,35,0.00,,,0.00,WeatherTracker,2013-03-04 08:31:00,
2013-03-04 01:41:00,37.0,13.8,23.30,NE,38,0.0,0.0,38,0.00,,,0.00,WeatherTracker,2013-03-04 08:41:00,
2013-03-04 01:51:00,36.7,13.5,23.30,East,95,0.0,0.0,38,0.00,,,0.00,WeatherTracker,2013-03-04 08:51:00,
2013-03-04 01:56:00,36.9,13.7,23.30,ENE,76,0.0,0.0,38,0.00,,,0.00,WeatherTracker,2013-03-04 08:56:00,
2013-03-04 02:01:00,36.9,13.1,23.30,East,96,0.0,0.0,37,0.00,,,0.00,WeatherTracker,2013-03-04 09:01:00,
2013-03-04 02:11:00,37.0,12.6,23.30,ESE,119,0.0,2.0,36,0.00,,,0.00,WeatherTracker,2013-03-04 09:11:00,
2013-03-04 02:16:00,37.0,12.6,23.30,NE,56,0.0,0.0,36,0.00,,,0.00,WeatherTracker,2013-03-04 09:16:00,
2013-03-04 02:26:00,36.3,13.8,23.30,ENE,58,0.0,0.0,39,0.00,,,0.00,WeatherTracker,2013-03-04 09:26:00,
2013-03-04 02:36:00,35.8,13.3,23.30,East,88,0.0,0.0,39,0.00,,,0.00,WeatherTracker,2013-03-04 09:36:00,
2013-03-04 02:46:00,35.8,13.3,23.27,NNE,28,0.0,0.0,39,0.00,,,0.00,WeatherTracker,2013-03-04 09:46:00,
2013-03-04 02:51:00,35.8,13.3,23.27,NNE,28,0.0,0.0,39,0.00,,,0.00,WeatherTracker,2013-03-04 09:51:00,
2013-03-04 02:56:00,35.8,13.3,23.27,NNE,28,0.0,0.0,39,0.00,,,0.00,WeatherTracker,2013-03-04 09:56:00,
2013-03-04 03:01:00,35.8,13.8,23.27,NNE,28,0.0,0.0,40,0.00,,,0.00,WeatherTracker,2013-03-04 10:01:00,
2013-03-04 03:11:00,35.6,13.1,23.27,East,91,0.0,0.0,39,0.00,,,0.00,WeatherTracker,2013-03-04 10:11:00,
2013-03-04 03:16:00,35.4,13.5,23.27,East,91,0.0,0.0,40,0.00,,,0.00,WeatherTracker,2013-03-04 10:16:00,
2013-03-04 03:21:00,35.4,13.5,23.27,East,91,0.0,0.0,40,0.00,,,0.00,WeatherTracker,2013-03-04 10:21:00,
2013-03-04 03:26:00,35.2,13.4,23.27,East,91,0.0,0.0,40,0.00,,,0.00,WeatherTracker,2013-03-04 10:26:00,
2013-03-04 03:36:00,34.9,13.6,23.27,NNE,19,0.0,0.0,41,0.00,,,0.00,WeatherTracker,2013-03-04 10:36:00,
2013-03-04 03:46:00,34.7,13.4,23.27,NNE,16,0.0,0.0,41,0.00,,,0.00,WeatherTracker,2013-03-04 10:46:00,
2013-03-04 03:56:00,35.1,13.8,23.27,NNE,15,0.0,0.0,41,0.00,,,0.00,WeatherTracker,2013-03-04 10:56:00,
2013-03-04 04:06:00,35.6,14.2,23.27,NNE,12,0.0,0.0,41,0.00,,,0.00,WeatherTracker,2013-03-04 11:06:00,
2013-03-04 04:11:00,35.4,14.1,23.27,NNE,14,0.0,0.0,41,0.00,,,0.00,WeatherTracker,2013-03-04 11:11:00,
2013-03-04 04:21:00,35.4,14.1,23.27,NE,34,0.0,0.0,41,0.00,,,0.00,WeatherTracker,2013-03-04 11:21:00,
2013-03-04 04:31:00,35.6,14.2,23.27,NNE,20,0.0,0.0,41,0.00,,,0.00,WeatherTracker,2013-03-04 11:31:00,
2013-03-04 04:41:00,35.6,14.2,23.27,NE,46,0.0,0.0,41,0.00,,,0.00,WeatherTracker,2013-03-04 11:41:00,
2013-03-04 04:46:00,35.8,14.4,23.27,WNW,283,0.0,0.0,41,0.00,,,0.00,WeatherTracker,2013-03-04 11:46:00,
2013-03-04 04:56:00,36.0,14.6,23.27,NNE,24,0.0,0.0,41,0.00,,,0.00,WeatherTracker,2013-03-04 11:56:00,
2013-03-04 05:01:00,36.0,15.1,23.27,ESE,104,0.0,0.0,42,0.00,,,0.00,WeatherTracker,2013-03-04 12:01:00,
2013-03-04 05:06:00,36.1,15.3,23.27,NE,40,0.0,0.0,42,0.00,,,0.00,WeatherTracker,2013-03-04 12:06:00,
2013-03-04 05:11:00,36.3,15.4,23.27,NE,40,0.0,0.0,42,0.00,,,0.00,WeatherTracker,2013-03-04 12:11:00,
2013-03-04 05:21:00,36.3,15.4,23.27,NNE,30,0.0,0.0,42,0.00,,,0.00,WeatherTracker,2013-03-04 12:21:00,
2013-03-04 05:26:00,36.3,16.0,23.27,NNE,30,0.0,0.0,43,0.00,,,0.00,WeatherTracker,2013-03-04 12:26:00,
2013-03-04 05:31:00,36.1,15.3,23.30,NNE,30,0.0,0.0,42,0.00,,,0.00,WeatherTracker,2013-03-04 12:31:00,
2013-03-04 05:41:00,36.1,15.8,23.30,ENE,59,0.0,0.0,43,0.00,,,0.00,WeatherTracker,2013-03-04 12:41:00,
2013-03-04 05:46:00,36.3,16.0,23.27,NE,47,0.0,0.0,43,0.00,,,0.00,WeatherTracker,2013-03-04 12:46:00,
2013-03-04 05:56:00,36.5,15.6,23.27,ENE,65,0.0,0.0,42,0.00,,,0.00,WeatherTracker,2013-03-04 12:56:00,
2013-03-04 06:01:00,36.5,16.2,23.30,ENE,65,0.0,0.0,43,0.00,,,0.00,WeatherTracker,2013-03-04 13:01:00,
2013-03-04 06:06:00,36.5,16.2,23.30,ENE,65,0.0,0.0,43,0.00,,,0.00,WeatherTracker,2013-03-04 13:06:00,
2013-03-04 06:16:00,36.7,15.8,23.27,East,86,0.0,0.0,42,0.00,,,0.00,WeatherTracker,2013-03-04 13:16:00,
2013-03-04 06:21:00,36.5,15.6,23.27,East,87,0.0,0.0,42,0.00,,,0.00,WeatherTracker,2013-03-04 13:21:00,
2013-03-04 06:26:00,36.3,16.0,23.27,East,89,0.0,0.0,43,0.00,,,0.00,WeatherTracker,2013-03-04 13:26:00,
2013-03-04 06:31:00,36.1,15.8,23.30,NE,51,0.0,0.0,43,0.00,,,0.00,WeatherTracker,2013-03-04 13:31:00,
2013-03-04 06:36:00,36.0,15.7,23.30,ENE,58,0.0,0.0,43,0.00,,,0.00,WeatherTracker,2013-03-04 13:36:00,
2013-03-04 06:41:00,35.8,15.5,23.30,ENE,73,0.0,0.0,43,0.00,,,0.00,WeatherTracker,2013-03-04 13:41:00,
2013-03-04 06:51:00,35.4,15.7,23.27,ESE,102,0.0,4.0,44,0.00,,,0.00,WeatherTracker,2013-03-04 13:51:00,
2013-03-04 07:01:00,35.4,16.2,23.30,East,95,0.0,0.0,45,0.00,,,0.00,WeatherTracker,2013-03-04 14:01:00,
2013-03-04 07:06:00,35.4,16.2,23.30,ENE,78,0.0,0.0,45,0.00,,,0.00,WeatherTracker,2013-03-04 14:06:00,
2013-03-04 07:16:00,35.1,16.4,23.30,East,87,0.0,0.0,46,0.00,,,0.00,WeatherTracker,2013-03-04 14:16:00,
2013-03-04 07:21:00,35.1,16.4,23.30,NNE,12,0.0,0.0,46,0.00,,,0.00,WeatherTracker,2013-03-04 14:21:00,
2013-03-04 07:31:00,35.4,16.7,23.30,NE,47,0.0,0.0,46,0.00,,,0.00,WeatherTracker,2013-03-04 14:31:00,
2013-03-04 07:36:00,35.4,16.2,23.30,ENE,60,0.0,0.0,45,0.00,,,0.00,WeatherTracker,2013-03-04 14:36:00,
2013-03-04 07:41:00,35.8,16.5,23.30,East,83,0.0,0.0,45,0.00,,,0.00,WeatherTracker,2013-03-04 14:41:00,
2013-03-04 07:51:00,36.3,17.0,23.30,East,95,0.0,0.0,45,0.00,,,0.00,WeatherTracker,2013-03-04 14:51:00,
2013-03-04 08:01:00,37.4,17.5,23.30,East,99,0.0,0.0,44,0.00,,,0.00,WeatherTracker,2013-03-04 15:01:00,
2013-03-04 08:11:00,38.1,17.6,23.30,NE,50,0.0,0.0,43,0.00,,,0.00,WeatherTracker,2013-03-04 15:11:00,
2013-03-04 08:16:00,38.7,18.1,23.30,NE,55,0.0,0.0,43,0.00,,,0.00,WeatherTracker,2013-03-04 15:16:00,
2013-03-04 08:21:00,38.8,17.7,23.30,SE,139,0.0,4.0,42,0.00,,,0.00,WeatherTracker,2013-03-04 15:21:00,
2013-03-04 08:26:00,39.4,17.7,23.30,ESE,103,0.0,0.0,41,0.00,,,0.00,WeatherTracker,2013-03-04 15:26:00,
2013-03-04 08:36:00,39.9,18.1,23.30,East,79,2.0,0.0,41,0.00,,,0.00,WeatherTracker,2013-03-04 15:36:00,
2013-03-04 08:41:00,40.3,17.9,23.30,ENE,77,0.0,0.0,40,0.00,,,0.00,WeatherTracker,2013-03-04 15:41:00,
2013-03-04 08:46:00,41.0,18.5,23.30,ENE,65,0.0,0.0,40,0.00,,,0.00,WeatherTracker,2013-03-04 15:46:00,
2013-03-04 08:51:00,41.4,18.9,23.30,SE,145,0.0,0.0,40,0.00,,,0.00,WeatherTracker,2013-03-04 15:51:00,
2013-03-04 08:56:00,41.7,19.2,23.30,ESE,106,2.0,4.0,40,0.00,,,0.00,WeatherTracker,2013-03-04 15:56:00,
2013-03-04 09:01:00,42.3,19.7,23.30,NNW,343,3.0,3.0,40,0.00,,,0.00,WeatherTracker,2013-03-04 16:01:00,
2013-03-04 09:06:00,42.8,19.6,23.30,North,0,2.0,0.0,39,0.00,,,0.00,WeatherTracker,2013-03-04 16:06:00,
2013-03-04 09:11:00,43.3,20.1,23.30,SE,125,0.0,0.0,39,0.00,,,0.00,WeatherTracker,2013-03-04 16:11:00,
2013-03-04 09:16:00,43.7,19.8,23.30,SSE,149,4.0,0.0,38,0.00,,,0.00,WeatherTracker,2013-03-04 16:16:00,
2013-03-04 09:26:00,44.4,20.4,23.30,ESE,116,0.0,3.0,38,0.00,,,0.00,WeatherTracker,2013-03-04 16:26:00,
2013-03-04 09:36:00,44.8,20.1,23.30,North,357,0.0,2.0,37,0.00,,,0.00,WeatherTracker,2013-03-04 16:36:00,
2013-03-04 09:41:00,44.2,20.3,23.30,NE,43,0.0,0.0,38,0.00,,,0.00,WeatherTracker,2013-03-04 16:41:00,
2013-03-04 09:46:00,43.9,19.9,23.33,SSE,152,3.0,5.0,38,0.00,,,0.00,WeatherTracker,2013-03-04 16:46:00,
2013-03-04 09:51:00,44.6,20.0,23.33,ENE,63,3.0,3.0,37,0.00,,,0.00,WeatherTracker,2013-03-04 16:51:00,
2013-03-04 10:01:00,45.9,19.8,23.33,ESE,119,3.0,0.0,35,0.00,,,0.00,WeatherTracker,2013-03-04 17:01:00,
2013-03-04 10:11:00,45.3,18.6,23.33,North,353,0.0,0.0,34,0.00,,,0.00,WeatherTracker,2013-03-04 17:11:00,
2013-03-04 10:16:00,45.1,18.5,23.33,West,274,0.0,3.0,34,0.00,,,0.00,WeatherTracker,2013-03-04 17:16:00,
2013-03-04 10:21:00,45.1,19.1,23.33,ESE,116,0.0,0.0,35,0.00,,,0.00,WeatherTracker,2013-03-04 17:21:00,
2013-03-04 10:26:00,45.0,19.0,23.33,SSE,150,0.0,3.0,35,0.00,,,0.00,WeatherTracker,2013-03-04 17:26:00,
2013-03-04 10:36:00,44.8,18.1,23.33,East,99,0.0,3.0,34,0.00,,,0.00,WeatherTracker,2013-03-04 17:36:00,
2013-03-04 10:41:00,45.1,19.1,23.33,ESE,106,0.0,0.0,35,0.00,,,0.00,WeatherTracker,2013-03-04 17:41:00,
2013-03-04 10:51:00,46.6,19.0,23.33,NNE,25,2.0,3.0,33,0.00,,,0.00,WeatherTracker,2013-03-04 17:51:00,
2013-03-04 10:56:00,46.2,18.7,23.33,NE,40,2.0,3.0,33,0.00,,,0.00,WeatherTracker,2013-03-04 17:56:00,
2013-03-04 11:06:00,45.3,18.6,23.33,ESE,104,3.0,3.0,34,0.00,,,0.00,WeatherTracker,2013-03-04 18:06:00,
2013-03-04 11:16:00,45.3,19.3,23.33,ENE,68,0.0,2.0,35,0.00,,,0.00,WeatherTracker,2013-03-04 18:16:00,
2013-03-04 11:21:00,46.0,19.3,23.33,East,91,3.0,4.0,34,0.00,,,0.00,WeatherTracker,2013-03-04 18:21:00,
2013-03-04 11:26:00,46.4,18.9,23.33,ENE,65,0.0,0.0,33,0.00,,,0.00,WeatherTracker,2013-03-04 18:26:00,
2013-03-04 11:31:00,47.3,20.4,23.33,SE,127,3.0,4.0,34,0.00,,,0.00,WeatherTracker,2013-03-04 18:31:00,
2013-03-04 11:36:00,48.6,20.1,23.33,ESE,102,0.0,0.0,32,0.00,,,0.00,WeatherTracker,2013-03-04 18:36:00,
2013-03-04 11:41:00,48.2,19.0,23.33,NNE,20,5.0,5.0,31,0.00,,,0.00,WeatherTracker,2013-03-04 18:41:00,
2013-03-04 11:51:00,47.1,18.8,23.33,ENE,57,0.0,0.0,32,0.00,,,0.00,WeatherTracker,2013-03-04 18:51:00,
2013-03-04 12:01:00,46.9,18.6,23.33,NW,312,3.0,5.0,32,0.00,,,0.00,WeatherTracker,2013-03-04 19:01:00,
2013-03-04 12:11:00,46.9,18.6,23.33,NE,36,0.0,0.0,32,0.00,,,0.00,WeatherTracker,2013-03-04 19:11:00,
2013-03-04 12:16:00,47.7,20.0,23.33,ESE,110,3.0,4.0,33,0.00,,,0.00,WeatherTracker,2013-03-04 19:16:00,
2013-03-04 12:21:00,48.2,19.0,23.33,NW,318,2.0,3.0,31,0.00,,,0.00,WeatherTracker,2013-03-04 19:21:00,
2013-03-04 12:26:00,48.7,20.2,23.33,East,80,0.0,3.0,32,0.00,,,0.00,WeatherTracker,2013-03-04 19:26:00,
2013-03-04 12:31:00,49.5,20.1,23.33,NE,48,0.0,0.0,31,0.00,,,0.00,WeatherTracker,2013-03-04 19:31:00,
2013-03-04 12:36:00,48.9,19.6,23.33,NNW,339,0.0,0.0,31,0.00,,,0.00,WeatherTracker,2013-03-04 19:36:00,
2013-03-04 12:41:00,49.1,19.8,23.33,East,87,3.0,6.0,31,0.00,,,0.00,WeatherTracker,2013-03-04 19:41:00,
2013-03-04 12:46:00,49.8,20.4,23.33,SW,225,3.0,3.0,31,0.00,,,0.00,WeatherTracker,2013-03-04 19:46:00,
2013-03-04 12:56:00,51.6,21.2,23.33,ESE,114,4.0,0.0,30,0.00,,,0.00,WeatherTracker,2013-03-04 19:56:00,
2013-03-04 13:01:00,51.6,20.4,23.33,SSE,165,4.0,4.0,29,0.00,,,0.00,WeatherTracker,2013-03-04 20:01:00,
2013-03-04 13:06:00,51.4,20.3,23.33,North,357,3.0,4.0,29,0.00,,,0.00,WeatherTracker,2013-03-04 20:06:00,
2013-03-04 13:16:00,51.6,20.4,23.33,SSE,162,2.0,3.0,29,0.00,,,0.00,WeatherTracker,2013-03-04 20:16:00,
2013-03-04 13:26:00,51.6,19.6,23.33,NE,43,0.0,0.0,28,0.00,,,0.00,WeatherTracker,2013-03-04 20:26:00,
2013-03-04 13:36:00,51.3,19.3,23.33,NNE,25,0.0,3.0,28,0.00,,,0.00,WeatherTracker,2013-03-04 20:36:00,
2013-03-04 13:41:00,51.1,19.1,23.33,East,92,2.0,3.0,28,0.00,,,0.00,WeatherTracker,2013-03-04 20:41:00,
2013-03-04 13:51:00,51.6,19.6,23.33,SSW,210,3.0,5.0,28,0.00,,,0.00,WeatherTracker,2013-03-04 20:51:00,
2013-03-04 13:56:00,52.2,19.2,23.33,ENE,65,4.0,4.0,27,0.00,,,0.00,WeatherTracker,2013-03-04 20:56:00,
2013-03-04 14:06:00,52.3,20.2,23.33,SW,221,2.0,0.0,28,0.00,,,0.00,WeatherTracker,2013-03-04 21:06:00,
2013-03-04 14:16:00,52.2,19.2,23.33,SE,139,2.0,3.0,27,0.00,,,0.00,WeatherTracker,2013-03-04 21:16:00,
2013-03-04 14:26:00,52.3,19.4,23.33,ESE,111,4.0,4.0,27,0.00,,,0.00,WeatherTracker,2013-03-04 21:26:00,
2013-03-04 14:31:00,52.3,19.4,23.33,WNW,296,3.0,3.0,27,0.00,,,0.00,WeatherTracker,2013-03-04 21:31:00,
2013-03-04 14:36:00,52.3,19.4,23.33,North,357,4.0,4.0,27,0.00,,,0.00,WeatherTracker,2013-03-04 21:36:00,
2013-03-04 14:41:00,52.3,19.4,23.33,East,96,0.0,3.0,27,0.00,,,0.00,WeatherTracker,2013-03-04 21:41:00,
2013-03-04 14:51:00,52.7,19.7,23.33,ESE,113,3.0,4.0,27,0.00,,,0.00,WeatherTracker,2013-03-04 21:51:00,
2013-03-04 14:56:00,52.5,18.6,23.33,NNE,14,3.0,3.0,26,0.00,,,0.00,WeatherTracker,2013-03-04 21:56:00,
2013-03-04 15:01:00,52.5,18.6,23.33,ESE,104,2.0,3.0,26,0.00,,,0.00,WeatherTracker,2013-03-04 22:01:00,
2013-03-04 15:11:00,52.3,18.5,23.33,NNW,343,3.0,3.0,26,0.00,,,0.00,WeatherTracker,2013-03-04 22:11:00,
2013-03-04 15:16:00,52.2,18.3,23.33,North,353,0.0,0.0,26,0.00,,,0.00,WeatherTracker,2013-03-04 22:16:00,
2013-03-04 15:21:00,52.0,18.2,23.33,NNE,22,2.0,3.0,26,0.00,,,0.00,WeatherTracker,2013-03-04 22:21:00,
2013-03-04 15:26:00,52.3,18.5,23.33,North,1,3.0,3.0,26,0.00,,,0.00,WeatherTracker,2013-03-04 22:26:00,
2013-03-04 15:36:00,52.0,18.2,23.36,ESE,123,0.0,4.0,26,0.00,,,0.00,WeatherTracker,2013-03-04 22:36:00,
2013-03-04 15:46:00,52.0,18.2,23.36,South,181,0.0,3.0,26,0.00,,,0.00,WeatherTracker,2013-03-04 22:46:00,
2013-03-04 15:56:00,51.6,18.7,23.36,SW,219,4.0,5.0,27,0.00,,,0.00,WeatherTracker,2013-03-04 22:56:00,
2013-03-04 16:01:00,51.6,18.7,23.36,SW,221,0.0,3.0,27,0.00,,,0.00,WeatherTracker,2013-03-04 23:01:00,
2013-03-04 16:11:00,51.3,17.6,23.36,SE,131,3.0,3.0,26,0.00,,,0.00,WeatherTracker,2013-03-04 23:11:00,
2013-03-04 16:16:00,51.1,18.3,23.36,ESE,114,0.0,0.0,27,0.00,,,0.00,WeatherTracker,2013-03-04 23:16:00,
2013-03-04 16:26:00,51.1,18.3,23.36,SW,216,0.0,0.0,27,0.00,,,0.00,WeatherTracker,2013-03-04 23:26:00,
2013-03-04 16:36:00,50.7,17.1,23.36,ENE,75,0.0,0.0,26,0.00,,,0.00,WeatherTracker,2013-03-04 23:36:00,
2013-03-04 16:46:00,50.4,16.8,23.36,ENE,73,0.0,2.0,26,0.00,,,0.00,WeatherTracker,2013-03-04 23:46:00,
2013-03-04 16:51:00,50.2,16.6,23.36,East,89,0.0,0.0,26,0.00,,,0.00,WeatherTracker,2013-03-04 23:51:00,
2013-03-04 16:56:00,50.0,16.5,23.36,South,189,0.0,0.0,26,0.00,,,0.00,WeatherTracker,2013-03-04 23:56:00,
2013-03-04 17:06:00,49.6,14.3,23.39,SW,217,0.0,0.0,24,0.00,,,0.00,WeatherTracker,2013-03-05 00:06:00,
2013-03-04 17:11:00,49.5,16.9,23.39,NE,54,0.0,0.0,27,0.00,,,0.00,WeatherTracker,2013-03-05 00:11:00,
2013-03-04 17:21:00,48.9,15.6,23.39,North,11,0.0,0.0,26,0.00,,,0.00,WeatherTracker,2013-03-05 00:21:00,
2013-03-04 17:31:00,48.0,15.7,23.39,ESE,107,0.0,0.0,27,0.00,,,0.00,WeatherTracker,2013-03-05 00:31:00,
2013-03-04 17:36:00,47.7,15.3,23.39,ESE,117,0.0,0.0,27,0.00,,,0.00,WeatherTracker,2013-03-05 00:36:00,
2013-03-04 17:46:00,47.5,15.2,23.39,ENE,63,0.0,0.0,27,0.00,,,0.00,WeatherTracker,2013-03-05 00:46:00,
2013-03-04 17:56:00,47.1,14.9,23.39,SE,137,0.0,0.0,27,0.00,,,0.00,WeatherTracker,2013-03-05 00:56:00,
2013-03-04 18:06:00,46.8,14.6,23.39,NE,45,0.0,0.0,27,0.00,,,0.00,WeatherTracker,2013-03-05 01:06:00,
2013-03-04 18:11:00,46.8,14.6,23.39,East,84,0.0,0.0,27,0.00,,,0.00,WeatherTracker,2013-03-05 01:11:00,
2013-03-04 18:21:00,45.9,14.6,23.42,ENE,72,0.0,0.0,28,0.00,,,0.00,WeatherTracker,2013-03-05 01:21:00,
2013-03-04 18:26:00,45.5,14.3,23.42,ENE,72,0.0,0.0,28,0.00,,,0.00,WeatherTracker,2013-03-05 01:26:00,
2013-03-04 18:31:00,45.0,13.8,23.42,ENE,72,0.0,0.0,28,0.00,,,0.00,WeatherTracker,2013-03-05 01:31:00,
2013-03-04 18:41:00,44.1,13.1,23.42,ENE,72,0.0,0.0,28,0.00,,,0.00,WeatherTracker,2013-03-05 01:41:00,
2013-03-04 18:51:00,43.3,12.4,23.42,ENE,72,0.0,0.0,28,0.00,,,0.00,WeatherTracker,2013-03-05 01:51:00,
2013-03-04 18:56:00,43.0,12.1,23.42,ENE,72,0.0,0.0,28,0.00,,,0.00,WeatherTracker,2013-03-05 01:56:00,
2013-03-04 19:06:00,42.4,12.5,23.42,ENE,72,0.0,0.0,29,0.00,,,0.00,WeatherTracker,2013-03-05 02:06:00,
2013-03-04 19:11:00,42.3,12.3,23.42,ENE,72,0.0,0.0,29,0.00,,,0.00,WeatherTracker,2013-03-05 02:11:00,
2013-03-04 19:16:00,42.1,12.1,23.42,ENE,72,0.0,0.0,29,0.00,,,0.00,WeatherTracker,2013-03-05 02:16:00,
2013-03-04 19:26:00,41.4,11.5,23.42,ENE,72,0.0,0.0,29,0.00,,,0.00,WeatherTracker,2013-03-05 02:26:00,
2013-03-04 19:31:00,41.0,12.0,23.45,ENE,72,0.0,0.0,30,0.00,,,0.00,WeatherTracker,2013-03-05 02:31:00,
2013-03-04 19:41:00,40.5,12.2,23.45,ENE,72,0.0,0.0,31,0.00,,,0.00,WeatherTracker,2013-03-05 02:41:00,
2013-03-04 19:51:00,40.1,11.9,23.45,ENE,72,0.0,0.0,31,0.00,,,0.00,WeatherTracker,2013-03-05 02:51:00,
2013-03-04 20:01:00,39.7,13.0,23.45,ENE,72,0.0,0.0,33,0.00,,,0.00,WeatherTracker,2013-03-05 03:01:00,
2013-03-04 20:06:00,39.2,12.5,23.45,ENE,72,0.0,0.0,33,0.00,,,0.00,WeatherTracker,2013-03-05 03:06:00,
2013-03-04 20:16:00,38.8,12.2,23.45,ENE,72,0.0,0.0,33,0.00,,,0.00,WeatherTracker,2013-03-05 03:16:00,
2013-03-04 20:21:00,38.7,12.1,23.45,ENE,72,0.0,0.0,33,0.00,,,0.00,WeatherTracker,2013-03-05 03:21:00,
2013-03-04 20:26:00,38.7,12.7,23.45,ENE,72,0.0,0.0,34,0.00,,,0.00,WeatherTracker,2013-03-05 03:26:00,
2013-03-04 20:36:00,38.5,12.6,23.45,ENE,72,0.0,0.0,34,0.00,,,0.00,WeatherTracker,2013-03-05 03:36:00,
2013-03-04 20:41:00,38.3,13.1,23.45,ENE,72,0.0,0.0,35,0.00,,,0.00,WeatherTracker,2013-03-05 03:41:00,
2013-03-04 20:46:00,38.3,13.1,23.45,ENE,72,0.0,0.0,35,0.00,,,0.00,WeatherTracker,2013-03-05 03:46:00,
2013-03-04 20:51:00,38.1,13.6,23.45,ENE,72,0.0,0.0,36,0.00,,,0.00,WeatherTracker,2013-03-05 03:51:00,
2013-03-04 21:01:00,37.4,12.9,23.45,ENE,72,0.0,0.0,36,0.00,,,0.00,WeatherTracker,2013-03-05 04:01:00,
2013-03-04 21:11:00,36.5,11.5,23.45,ENE,72,0.0,0.0,35,0.00,,,0.00,WeatherTracker,2013-03-05 04:11:00,
2013-03-04 21:16:00,36.3,12.6,23.45,ENE,72,0.0,0.0,37,0.00,,,0.00,WeatherTracker,2013-03-05 04:16:00,
2013-03-04 21:26:00,35.8,12.7,23.45,ENE,72,0.0,0.0,38,0.00,,,0.00,WeatherTracker,2013-03-05 04:26:00,
2013-03-04 21:36:00,35.4,13.5,23.48,ENE,72,0.0,0.0,40,0.00,,,0.00,WeatherTracker,2013-03-05 04:36:00,
2013-03-04 21:41:00,35.2,13.4,23.48,ENE,72,0.0,0.0,40,0.00,,,0.00,WeatherTracker,2013-03-05 04:41:00,
2013-03-04 21:46:00,35.1,13.2,23.48,ENE,72,0.0,0.0,40,0.00,,,0.00,WeatherTracker,2013-03-05 04:46:00,
2013-03-04 21:56:00,34.2,12.4,23.48,ENE,72,0.0,0.0,40,0.00,,,0.00,WeatherTracker,2013-03-05 04:56:00,
2013-03-04 22:01:00,33.8,12.6,23.48,ENE,72,0.0,0.0,41,0.00,,,0.00,WeatherTracker,2013-03-05 05:01:00,
2013-03-04 22:06:00,33.6,12.5,23.48,ENE,72,0.0,0.0,41,0.00,,,0.00,WeatherTracker,2013-03-05 05:06:00,
2013-03-04 22:11:00,33.8,12.6,23.48,ENE,72,0.0,0.0,41,0.00,,,0.00,WeatherTracker,2013-03-05 05:11:00,
2013-03-04 22:16:00,33.4,12.8,23.48,ENE,72,0.0,0.0,42,0.00,,,0.00,WeatherTracker,2013-03-05 05:16:00,
2013-03-04 22:21:00,33.1,12.5,23.48,ENE,72,0.0,0.0,42,0.00,,,0.00,WeatherTracker,2013-03-05 05:21:00,
2013-03-04 22:26:00,32.5,12.0,23.48,ENE,72,0.0,0.0,42,0.00,,,0.00,WeatherTracker,2013-03-05 05:26:00,
2013-03-04 22:31:00,32.5,12.6,23.48,ENE,72,0.0,0.0,43,0.00,,,0.00,WeatherTracker,2013-03-05 05:31:00,
2013-03-04 22:36:00,32.5,13.1,23.48,ENE,72,0.0,0.0,44,0.00,,,0.00,WeatherTracker,2013-03-05 05:36:00,
2013-03-04 22:46:00,32.4,13.4,23.48,ENE,72,0.0,0.0,45,0.00,,,0.00,WeatherTracker,2013-03-05 05:46:00,
2013-03-04 22:56:00,31.8,12.4,23.48,ENE,72,0.0,0.0,44,0.00,,,0.00,WeatherTracker,2013-03-05 05:56:00,
2013-03-04 23:01:00,32.0,13.1,23.48,ENE,72,0.0,0.0,45,0.00,,,0.00,WeatherTracker,2013-03-05 06:01:00,
2013-03-04 23:06:00,31.8,12.4,23.48,ENE,72,0.0,0.0,44,0.00,,,0.00,WeatherTracker,2013-03-05 06:06:00,
2013-03-04 23:11:00,31.3,11.9,23.48,ENE,72,0.0,0.0,44,0.00,,,0.00,WeatherTracker,2013-03-05 06:11:00,
2013-03-04 23:16:00,31.3,12.4,23.51,ENE,72,0.0,0.0,45,0.00,,,0.00,WeatherTracker,2013-03-05 06:16:00,
2013-03-04 23:21:00,30.7,11.9,23.51,ENE,72,0.0,0.0,45,0.00,,,0.00,WeatherTracker,2013-03-05 06:21:00,
2013-03-04 23:26:00,30.6,12.3,23.51,ENE,72,0.0,0.0,46,0.00,,,0.00,WeatherTracker,2013-03-05 06:26:00,
2013-03-04 23:36:00,30.2,12.9,23.48,ENE,72,0.0,0.0,48,0.00,,,0.00,WeatherTracker,2013-03-05 06:36:00,
2013-03-04 23:41:00,30.0,13.2,23.48,ENE,72,0.0,0.0,49,0.00,,,0.00,WeatherTracker,2013-03-05 06:41:00,
2013-03-04 23:46:00,30.0,13.2,23.48,ENE,72,0.0,0.0,49,0.00,,,0.00,WeatherTracker,2013-03-05 06:46:00,
2013-03-04 23:56:00,29.8,13.0,23.48,ENE,72,0.0,0.0,49,0.00,,,0.00,WeatherTracker,2013-03-05 06:56:00,